N5XJB Weather Reports


time (UTC)temp
F
wind
direction
speed
knots
gust
knots
rain 1hr
in
rain 24hr
in
rain mn
in
humidity
%
barometer
mb
20260506193248 84 141 1.7 1.7 0.00 0.00 0.00 76 1010.0
20260506192744 86 152 0.0 0.0 0.00 0.00 0.00 76 1010.0
20260506192241 86 157 0.0 0.0 0.00 0.00 0.00 77 1010.0
20260506191738 86 174 1.7 1.7 0.00 0.00 0.00 74 1010.0
20260506191234 85 166 0.9 0.9 0.00 0.00 0.00 74 1010.4
20260506190732 84 164 1.7 1.7 0.00 0.00 0.00 75 1010.4
20260506190228 86 129 0.9 0.9 0.00 0.00 0.00 76 1010.7
20260506185726 85 113 0.0 0.0 0.00 0.00 0.00 77 1010.7
20260506185222 84 257 0.9 0.9 0.00 0.00 0.00 77 1010.7
20260506184719 84 246 0.0 0.0 0.00 0.00 0.00 76 1010.7
20260506184216 85 176 0.0 0.0 0.00 0.00 0.00 78 1010.7
20260506183713 85 175 0.9 0.9 0.00 0.00 0.00 78 1010.7
20260506183209 85 128 3.5 3.5 0.00 0.00 0.00 78 1010.7
20260506182706 85 114 0.0 0.0 0.00 0.00 0.00 79 1010.7
20260506182203 85 234 1.7 1.7 0.00 0.00 0.00 74 1010.7
20260506181701 85 161 0.0 0.0 0.00 0.00 0.00 77 1011.0
20260506181158 84 138 0.0 0.0 0.00 0.00 0.00 76 1011.0
20260506180655 85 138 0.0 0.0 0.00 0.00 0.00 76 1011.0
20260506180151 85 146 1.7 1.7 0.00 0.00 0.00 78 1011.0
20260506175648 85 256 0.9 0.9 0.00 0.00 0.00 77 1011.4
20260506175145 85 288 1.7 1.7 0.00 0.00 0.00 77 1011.4
20260506174637 85 300 0.0 0.0 0.00 0.00 0.00 78 1011.7
20260506174134 85 300 0.0 0.0 0.00 0.00 0.00 78 1011.7
20260506173631 84 307 0.0 0.0 0.00 0.00 0.00 79 1011.7
20260506173128 84 72 0.0 0.0 0.00 0.00 0.00 79 1012.1
20260506172626 83 68 0.0 0.0 0.00 0.00 0.00 80 1011.7
20260506172121 83 68 0.0 0.0 0.00 0.00 0.00 81 1011.7
20260506171619 83 152 0.0 0.0 0.00 0.00 0.00 82 1012.1
20260506171116 83 163 1.7 1.7 0.00 0.00 0.00 82 1011.7
20260506170608 83 122 1.7 1.7 0.00 0.00 0.00 81 1012.1
20260506170105 83 192 0.0 0.0 0.00 0.00 0.00 79 1011.7
20260506165604 83 150 1.7 1.7 0.00 0.00 0.00 80 1011.7
20260506165100 83 151 1.7 1.7 0.00 0.00 0.00 80 1011.7
20260506164557 83 128 1.7 1.7 0.00 0.00 0.00 81 1011.7
20260506164054 82 132 0.9 0.9 0.00 0.00 0.00 82 1011.7
20260506163549 82 132 0.9 0.9 0.00 0.00 0.00 82 1011.7
20260506163046 82 126 0.9 0.9 0.00 0.00 0.00 83 1011.7
20260506162541 82 108 0.0 0.0 0.00 0.00 0.00 82 1011.7
20260506162034 83 108 1.7 1.7 0.00 0.00 0.00 81 1011.4
20260506161531 82 102 0.0 0.0 0.00 0.00 0.00 81 1011.4
20260506161028 81 174 0.0 0.0 0.00 0.00 0.00 83 1011.4
20260506160526 82 126 1.7 1.7 0.00 0.00 0.00 83 1011.4
20260506160023 81 96 0.0 0.0 0.00 0.00 0.00 84 1011.4
20260506155521 81 99 0.0 0.0 0.00 0.00 0.00 84 1011.7
20260506153658 81 76 0.0 0.0 0.00 0.00 0.00 84 1011.4
20260506153155 82 60 0.0 0.0 0.00 0.00 0.00 84 1011.4
20260506152652 82 60 0.0 0.0 0.00 0.00 0.00 84 1011.4
20260506152149 82 6 0.0 0.0 0.00 0.00 0.00 82 1011.0
20260506151648 82 6 0.0 0.0 0.00 0.00 0.00 83 1011.0
20260506151144 82 93 1.7 1.7 0.00 0.00 0.00 83 1011.0
20260506150641 82 138 0.0 0.0 0.00 0.00 0.00 83 1011.0
20260506150138 81 120 0.0 0.0 0.00 0.00 0.00 85 1011.0
20260506145635 82 116 0.0 0.0 0.00 0.00 0.00 83 1010.7
20260506145132 81 116 0.0 0.0 0.00 0.00 0.00 83 1011.0
20260506144630 81 115 0.0 0.0 0.00 0.00 0.00 85 1010.7
20260506144126 81 115 0.9 0.9 0.00 0.00 0.00 85 1010.7
20260506143624 80 106 0.9 0.9 0.00 0.00 0.00 87 1010.7
20260506143121 80 186 0.0 0.0 0.00 0.00 0.00 88 1010.7
20260506142620 80 94 0.0 0.0 0.00 0.00 0.00 88 1010.4
20260506142118 79 96 0.0 0.0 0.00 0.00 0.00 89 1010.4
20260506141615 79 162 1.7 1.7 0.00 0.00 0.00 89 1010.4
20260506141113 79 99 0.0 0.0 0.00 0.00 0.00 89 1010.7
20260506140610 79 72 0.9 0.9 0.00 0.00 0.00 90 1010.7
20260506140107 78 63 0.0 0.0 0.00 0.00 0.00 90 1010.7
20260506135604 78 135 0.0 0.0 0.00 0.00 0.00 91 1010.7
20260506135100 78 60 0.9 0.9 0.00 0.00 0.00 91 1010.7
20260506134557 78 48 0.0 0.0 0.00 0.00 0.00 91 1010.7
20260506134053 78 48 0.0 0.0 0.00 0.00 0.00 92 1010.7
20260506133550 78 18 0.0 0.0 0.00 0.00 0.00 92 1010.7
20260506133047 78 18 0.0 0.0 0.00 0.00 0.00 93 1011.0
20260506132544 78 12 0.0 0.0 0.00 0.00 0.00 93 1010.7
20260506132042 78 76 0.0 0.0 0.00 0.00 0.00 93 1010.7
20260506131538 78 122 0.0 0.0 0.00 0.00 0.00 93 1011.0
20260506131035 78 131 0.0 0.0 0.00 0.00 0.00 93 1010.7
20260506130532 78 123 1.7 1.7 0.00 0.00 0.00 93 1010.7
20260506130029 77 122 0.0 0.0 0.00 0.00 0.00 94 1011.0
20260506125528 77 162 0.0 0.0 0.00 0.00 0.00 94 1010.7
20260506125025 77 162 0.0 0.0 0.00 0.00 0.00 94 1010.4
20260506124523 77 264 0.0 0.0 0.00 0.00 0.00 94 1010.7
20260506124020 77 281 0.0 0.0 0.00 0.00 0.00 94 1010.7
20260506123518 77 281 0.0 0.0 0.00 0.00 0.00 95 1010.7
20260506123016 76 282 0.0 0.0 0.00 0.00 0.00 95 1010.7
20260506122512 76 282 0.0 0.0 0.00 0.00 0.00 95 1010.7
20260506122011 76 282 0.0 0.0 0.00 0.00 0.00 95 1010.4
20260506121508 76 282 0.0 0.0 0.00 0.00 0.00 95 1010.7
20260506121004 76 282 0.0 0.0 0.00 0.00 0.00 96 1010.7
20260506120502 76 282 0.0 0.0 0.00 0.00 0.00 96 1010.7
20260506115959 76 282 0.0 0.0 0.00 0.00 0.00 96 1010.7
20260506115457 76 282 0.0 0.0 0.00 0.00 0.00 96 1010.0
20260506114955 75 282 0.0 0.0 0.00 0.00 0.00 96 1010.4
20260506114452 75 127 0.0 0.0 0.00 0.00 0.00 96 1010.4
20260506113950 75 127 0.0 0.0 0.00 0.00 0.00 96 1010.0
20260506113448 75 127 0.0 0.0 0.00 0.00 0.00 96 1010.0
20260506112944 75 127 0.0 0.0 0.00 0.00 0.00 96 1010.0
20260506112442 75 127 0.0 0.0 0.00 0.00 0.00 96 1010.0
20260506111939 75 127 0.9 0.9 0.00 0.00 0.00 96 1009.7
20260506111437 75 127 0.0 0.0 0.00 0.00 0.00 96 1009.7
20260506110934 75 127 0.0 0.0 0.00 0.00 0.00 96 1009.7
20260506110432 75 127 0.0 0.0 0.00 0.00 0.00 96 1009.7
20260506105928 75 127 0.0 0.0 0.00 0.00 0.00 96 1009.7
20260506105424 75 129 0.0 0.0 0.00 0.00 0.00 96 1009.7
20260506104922 75 129 0.0 0.0 0.00 0.00 0.00 96 1009.3
20260506104420 75 129 0.0 0.0 0.00 0.00 0.00 95 1009.7
20260506103918 75 129 0.0 0.0 0.00 0.00 0.00 95 1009.7
20260506103415 75 128 0.0 0.0 0.00 0.00 0.00 95 1009.7
20260506102912 75 133 0.0 0.0 0.00 0.00 0.00 95 1009.3
20260506102410 75 133 0.0 0.0 0.00 0.00 0.00 95 1009.7
20260506101907 75 281 0.0 0.0 0.00 0.00 0.00 95 1009.7
20260506101403 76 281 0.0 0.0 0.00 0.00 0.00 95 1009.3
20260506100900 76 281 0.0 0.0 0.00 0.00 0.00 95 1009.3
20260506100359 76 275 0.0 0.0 0.00 0.00 0.00 94 1009.3
20260506095856 76 168 0.0 0.0 0.00 0.00 0.00 94 1009.3
20260506095354 76 168 0.0 0.0 0.00 0.00 0.00 94 1009.3
20260506094850 76 131 1.7 1.7 0.00 0.00 0.00 94 1009.3
20260506094349 76 324 0.0 0.0 0.00 0.00 0.00 94 1009.0
20260506093847 76 86 0.0 0.0 0.00 0.00 0.00 94 1009.3
20260506093344 76 79 0.0 0.0 0.00 0.00 0.00 94 1008.7
20260506092841 76 145 0.0 0.0 0.00 0.00 0.00 93 1009.0
20260506092340 76 133 1.7 1.7 0.00 0.00 0.00 93 1009.3
20260506091836 76 92 0.0 0.0 0.00 0.00 0.00 93 1009.0
20260506091334 76 54 1.7 1.7 0.00 0.00 0.00 93 1009.0
20260506090831 76 67 1.7 1.7 0.00 0.00 0.00 93 1009.3
20260506090328 77 135 0.0 0.0 0.00 0.00 0.00 93 1009.3
20260506085825 77 155 1.7 1.7 0.00 0.00 0.00 93 1009.3
20260506085321 77 96 0.0 0.0 0.00 0.00 0.00 92 1009.3
20260506084818 77 96 0.0 0.0 0.00 0.00 0.00 92 1009.3
20260506084315 77 88 0.0 0.0 0.00 0.00 0.00 92 1009.3
20260506083811 77 288 1.7 1.7 0.00 0.00 0.00 92 1009.3
20260506083309 77 286 1.7 1.7 0.00 0.00 0.00 92 1009.3
20260506082806 77 102 0.0 0.0 0.00 0.00 0.00 92 1009.3
20260506082304 77 204 0.0 0.0 0.00 0.00 0.00 92 1009.3
20260506081759 77 210 0.0 0.0 0.00 0.00 0.00 92 1009.7
20260506081257 77 180 0.0 0.0 0.00 0.00 0.00 92 1009.3
20260506080754 77 85 1.7 1.7 0.00 0.00 0.00 92 1009.7
20260506080250 77 83 0.0 0.0 0.00 0.00 0.00 92 1009.7
20260506073234 77 112 0.0 0.0 0.00 0.00 0.00 92 1010.0
20260506072731 77 112 0.0 0.0 0.00 0.00 0.00 92 1010.0
20260506072229 77 258 0.0 0.0 0.00 0.00 0.00 92 1010.0
20260506071727 77 258 0.0 0.0 0.00 0.00 0.00 92 1010.0
20260506071224 78 263 0.0 0.0 0.00 0.00 0.00 92 1010.4
20260506070721 78 258 1.7 1.7 0.00 0.00 0.00 92 1010.0
20260506070218 78 128 0.0 0.0 0.00 0.00 0.00 91 1010.4
20260506062155 78 94 0.0 0.0 0.00 0.00 0.00 91 1010.0
20260506061651 78 72 1.7 1.7 0.00 0.00 0.00 91 1010.4
20260506061148 78 180 1.7 1.7 0.00 0.00 0.00 91 1010.4
20260506060647 78 128 0.0 0.0 0.00 0.00 0.00 91 1010.4
20260506060143 78 108 0.0 0.0 0.00 0.00 0.00 91 1010.4
20260506051115 78 151 1.7 1.7 0.00 0.00 0.00 91 1010.7
20260506050614 78 133 1.7 1.7 0.00 0.00 0.00 91 1010.7
20260506050111 78 104 0.0 0.0 0.00 0.00 0.00 91 1010.4
20260506045104 78 143 1.7 1.7 0.00 0.00 0.00 91 1010.7
20260506044602 78 113 1.7 1.7 0.00 0.00 0.00 91 1010.4
20260506044058 78 90 1.7 1.7 0.00 0.00 0.00 91 1010.4
20260506043555 78 162 1.7 1.7 0.00 0.00 0.00 90 1010.4
20260506043054 78 114 0.0 0.0 0.00 0.00 0.00 90 1010.4
20260506042553 78 143 1.7 1.7 0.00 0.00 0.00 90 1010.4
20260506042050 78 127 1.7 1.7 0.00 0.00 0.00 89 1010.4
20260506041549 79 147 0.0 0.0 0.00 0.00 0.00 88 1010.0
20260506041045 79 147 0.0 0.0 0.00 0.00 0.00 88 1010.0
20260506040543 79 145 0.9 0.9 0.00 0.00 0.00 88 1010.4
20260506040038 79 134 1.7 1.7 0.00 0.00 0.00 88 1010.0
20260506035536 79 174 1.7 1.7 0.00 0.00 0.00 88 1010.0
20260506035032 79 117 1.7 1.7 0.00 0.00 0.00 87 1010.0
20260506034530 79 139 1.7 1.7 0.00 0.00 0.00 87 1010.0
20260506034026 79 204 1.7 1.7 0.00 0.00 0.00 86 1010.0
20260506033524 79 67 1.7 1.7 0.00 0.00 0.00 86 1010.0
20260506033021 79 108 0.9 0.9 0.00 0.00 0.00 86 1009.7
20260506032519 79 138 0.9 0.9 0.00 0.00 0.00 86 1009.7
20260506032015 79 254 0.0 0.0 0.00 0.00 0.00 86 1009.7
20260506031513 79 158 1.7 1.7 0.00 0.00 0.00 86 1009.7
20260506031009 79 336 1.7 1.7 0.00 0.00 0.00 86 1009.7
20260506030508 79 45 0.9 0.9 0.00 0.00 0.00 86 1009.3
20260506030005 79 300 1.7 1.7 0.00 0.00 0.00 86 1009.3
20260506025501 79 62 1.7 1.7 0.00 0.00 0.00 86 1009.3
20260506024957 79 154 1.7 1.7 0.00 0.00 0.00 86 1009.3
20260506024454 79 58 1.7 1.7 0.00 0.00 0.00 86 1009.3
20260506023950 79 102 0.0 0.0 0.00 0.00 0.00 85 1009.3
20260506023447 80 128 0.0 0.0 0.00 0.00 0.00 85 1008.7
20260506022944 80 127 1.7 1.7 0.00 0.00 0.00 85 1008.7
20260506022442 80 78 1.7 1.7 0.00 0.00 0.00 85 1009.0
20260506021939 80 268 3.5 3.5 0.00 0.00 0.00 85 1009.0
20260506021436 80 72 1.7 1.7 0.00 0.00 0.00 84 1009.0
20260506020933 80 300 1.7 1.7 0.00 0.00 0.00 84 1008.7
20260506020431 80 134 1.7 1.7 0.00 0.00 0.00 84 1008.7
20260506015928 80 113 0.0 0.0 0.00 0.00 0.00 84 1008.7
20260506015426 80 114 1.7 1.7 0.00 0.00 0.00 84 1008.7
20260506014922 80 102 1.7 1.7 0.00 0.00 0.00 83 1008.7
20260506014420 80 286 1.7 1.7 0.00 0.00 0.00 83 1008.7
20260506013916 80 326 0.0 0.0 0.00 0.00 0.00 83 1008.3
20260506013414 80 251 0.9 0.9 0.00 0.00 0.00 83 1008.3
20260506012910 80 162 0.0 0.0 0.00 0.00 0.00 83 1008.3
20260506012407 80 115 1.7 1.7 0.00 0.00 0.00 82 1008.3
20260506011904 80 96 0.0 0.0 0.00 0.00 0.00 82 1008.0
20260506011401 80 168 0.9 0.9 0.00 0.00 0.00 82 1008.0
20260506010858 80 180 1.7 1.7 0.00 0.00 0.00 82 1008.0
20260506010356 81 150 1.7 1.7 0.00 0.00 0.00 82 1008.0
20260506005853 81 336 1.7 1.7 0.00 0.00 0.00 81 1008.0
20260506005350 81 282 1.7 1.7 0.00 0.00 0.00 81 1008.0
20260506004845 81 93 1.7 1.7 0.00 0.00 0.00 81 1008.0
20260506004343 81 60 1.7 1.7 0.00 0.00 0.00 81 1008.0
20260506003839 81 156 1.7 1.7 0.00 0.00 0.00 81 1008.0
20260506003335 81 48 1.7 1.7 0.00 0.00 0.00 81 1008.0
20260506002832 81 192 2.6 2.6 0.00 0.00 0.00 81 1007.7
20260506002328 82 108 1.7 1.7 0.00 0.00 0.00 80 1007.7
20260506001824 82 180 0.9 0.9 0.00 0.00 0.00 80 1007.7
20260506001321 82 133 2.6 2.6 0.00 0.00 0.00 80 1008.0
20260506000818 82 204 1.7 1.7 0.00 0.00 0.00 80 1008.0
20260506000316 82 120 1.7 1.7 0.00 0.00 0.00 79 1008.0
20260505235812 83 288 1.7 1.7 0.00 0.00 0.00 78 1007.7
20260505235310 83 288 1.7 1.7 0.00 0.00 0.00 78 1007.7
20260505234807 83 132 1.7 1.7 0.00 0.00 0.00 78 1007.7
20260505234305 82 149 0.0 0.0 0.00 0.00 0.00 78 1007.3
20260505233801 82 306 1.7 1.7 0.00 0.00 0.00 77 1007.7
20260505233259 82 96 1.7 1.7 0.00 0.00 0.00 77 1007.7
20260505232756 82 132 1.7 1.7 0.00 0.00 0.00 77 1007.7
20260505232254 83 186 1.7 1.7 0.00 0.00 0.00 76 1007.7
20260505231750 83 137 0.0 0.0 0.00 0.00 0.00 76 1007.7
20260505231249 83 133 1.7 1.7 0.00 0.00 0.00 75 1007.7
20260505230747 83 154 1.7 1.7 0.00 0.00 0.00 76 1007.7
20260505230243 83 31 1.7 1.7 0.00 0.00 0.00 75 1007.7
20260505225740 83 95 2.6 2.6 0.00 0.00 0.00 75 1007.7
20260505225237 83 151 2.6 2.6 0.00 0.00 0.00 75 1007.7
20260505224732 83 112 1.7 1.7 0.00 0.00 0.00 75 1007.7
20260505224230 83 307 1.7 1.7 0.00 0.00 0.00 75 1007.3
20260505223727 84 108 0.9 0.9 0.00 0.00 0.00 74 1007.7
20260505223223 84 274 1.7 1.7 0.00 0.00 0.00 73 1007.7
20260505222719 84 295 0.0 0.0 0.00 0.00 0.00 73 1007.7
20260505222215 84 73 2.6 2.6 0.00 0.00 0.00 73 1007.7
20260505221713 84 186 2.6 3.5 0.00 0.00 0.00 74 1008.0
20260505221209 84 57 1.7 1.7 0.00 0.00 0.00 74 1008.0
20260505220707 84 126 3.5 4.3 0.00 0.00 0.00 73 1007.7
20260505220204 85 281 0.0 0.0 0.00 0.00 0.00 73 1007.7
20260505215702 85 93 1.7 1.7 0.00 0.00 0.00 72 1008.0
20260505215200 84 66 2.6 2.6 0.00 0.00 0.00 73 1008.0
20260505214657 84 120 2.6 2.6 0.00 0.00 0.00 74 1008.3
20260505214154 84 158 2.6 2.6 0.00 0.00 0.00 75 1008.0
20260505213652 84 318 0.9 0.9 0.00 0.00 0.00 74 1008.3
20260505213148 85 186 1.7 1.7 0.00 0.00 0.00 73 1008.3
20260505212644 85 160 1.7 1.7 0.00 0.00 0.00 73 1008.3
20260505212142 85 206 1.7 1.7 0.00 0.00 0.00 73 1008.3
20260505211639 86 112 1.7 1.7 0.00 0.00 0.00 72 1008.3
20260505211136 85 174 1.7 1.7 0.00 0.00 0.00 73 1008.3
20260505210633 85 94 1.7 1.7 0.00 0.00 0.00 73 1008.7
20260505210130 85 114 1.7 1.7 0.00 0.00 0.00 72 1008.7
20260505205627 85 129 2.6 3.5 0.00 0.00 0.00 72 1008.7
20260505205125 86 262 1.7 1.7 0.00 0.00 0.00 71 1008.7
20260505204622 86 64 1.7 1.7 0.00 0.00 0.00 69 1008.7
20260505204119 86 54 1.7 1.7 0.00 0.00 0.00 70 1008.7
20260505203616 86 114 1.7 1.7 0.00 0.00 0.00 70 1008.7
20260505203113 86 307 1.7 1.7 0.00 0.00 0.00 70 1008.7
20260505202609 85 198 0.0 0.0 0.00 0.00 0.00 73 1009.0
20260505202105 86 272 1.7 1.7 0.00 0.00 0.00 71 1009.3
20260505201602 85 99 1.7 1.7 0.00 0.00 0.00 72 1009.0
20260505201100 86 66 1.7 1.7 0.00 0.00 0.00 72 1009.3
20260505200557 85 325 1.7 1.7 0.00 0.00 0.00 72 1009.3
20260505200054 84 324 2.6 2.6 0.00 0.00 0.00 73 1009.3
20260505195550 84 101 3.5 3.5 0.00 0.00 0.00 73 1009.7
20260505195048 84 282 1.7 1.7 0.00 0.00 0.00 74 1009.7
20260505194545 84 312 1.7 1.7 0.00 0.00 0.00 74 1009.7
20260505194040 85 288 2.6 3.5 0.00 0.00 0.00 73 1009.7
20260505193537 84 127 1.7 1.7 0.00 0.00 0.00 74 1009.7